This is the latest recevied weather packets stored in our database for station/object K7CTM. If no packets are shown the sender has not sent any weather packets the latest 10 day(s).
| Time | Temp. | Humidity | Pressure | Rain* | Wind** | Luminosity | Snow |
|---|---|---|---|---|---|---|---|
| 1778151728 | 10.56° C | 79% | 1020.2 hPa | 0 mm | - | 0 W/m² | - |
| 1778151425 | 10.56° C | 78% | 1020.2 hPa | 0 mm | - | 0 W/m² | - |
| 1778151121 | 10.56° C | 77% | 1020.5 hPa | 0 mm | - | 0 W/m² | - |
| 1778150818 | 10.56° C | 76% | 1020.5 hPa | 0 mm | - | 0 W/m² | - |
| 1778150514 | 10.56° C | 75% | 1020.3 hPa | 0 mm | - | 0 W/m² | - |
| 1778150210 | 10.56° C | 76% | 1020.3 hPa | 0 mm | - | 0 W/m² | - |
| 1778149907 | 10° C | 82% | 1020.3 hPa | 0 mm | - | 0 W/m² | - |
| 1778149604 | 10.56° C | 78% | 1020.2 hPa | 0 mm | - | 0 W/m² | - |
| 1778149300 | 10.56° C | 79% | 1020.4 hPa | 0 mm | - | 0 W/m² | - |
| 1778148996 | 10.56° C | 77% | 1020.4 hPa | 0 mm | - | 0 W/m² | - |
| 1778148692 | 10° C | 79% | 1020.3 hPa | 0 mm | - | 0 W/m² | - |
| 1778148390 | 10° C | 79% | 1020.4 hPa | 0 mm | - | 0 W/m² | - |
| 1778148088 | 10° C | 81% | 1020.4 hPa | 0 mm | - | 0 W/m² | - |
| 1778147786 | 10.56° C | 79% | 1020.6 hPa | 0 mm | - | 0 W/m² | - |
| 1778147482 | 10.56° C | 79% | 1020.6 hPa | 0 mm | - | 0 W/m² | - |
| 1778147178 | 10.56° C | 79% | 1020.6 hPa | 0 mm | - | 0 W/m² | - |
| 1778146875 | 10.56° C | 76% | 1020.7 hPa | 0 mm | - | 0 W/m² | - |
| 1778146572 | 10.56° C | 78% | 1020.5 hPa | 0 mm | - | 0 W/m² | - |
| 1778146271 | 11.11° C | 76% | 1020.8 hPa | 0 mm | - | 0 W/m² | - |
| 1778145967 | 11.11° C | 75% | 1020.6 hPa | 0 mm | - | 0 W/m² | - |
| 1778145664 | 10.56° C | 75% | 1020.6 hPa | 0 mm | - | 0 W/m² | - |
| 1778145361 | 10° C | 80% | 1020.5 hPa | 0 mm | - | 0 W/m² | - |
| 1778145057 | 10° C | 85% | 1020.8 hPa | 1.27 mm | - | 0 W/m² | - |
| 1778144752 | 10° C | 83% | 1021.3 hPa | 1.27 mm | - | 0 W/m² | - |
| 1778144450 | 10.56° C | 82% | 1021.4 hPa | 1.27 mm | - | 0 W/m² | - |
* Rain latest hour (hover to see other rain measurements)
** Current wind speed in m/s (hover to see current wind gust speed)